Visibility
15.0 15.0 15.0 15.0 15.0 15.0 15.0 15.0 14.4 11.4 13.4 15.0 15.0 11.7 7.7 11.5 2.0 8.9 15.0 15.0 15.0 15.0 15.0 15.0 15.0 15.0 15.0 15.0 15.0 15.0 15.0 15.0 15.0 15.0 15.0 15.0 15.0 15.0 15.0 15.0 15.0 15.0 15.0
15.0 15.0 15.0 15.0 15.0 15.0 15.0 15.0 15.0 15.0 12.1 3.4 9.0 7.5 0.9 2.3 6.4 2.9 15.0 15.0 12.7 15.0 15.0 15.0 15.0 15.0 15.0 15.0 15.0 15.0 15.0 15.0 15.0 15.0 15.0 15.0 15.0 15.0 15.0 15.0 15.0 15.0 15.0
7.3 9.9 10.5 15.0 15.0 15.0 15.0 15.0 8.3 10.7 3.6 0.3 0.3 0.5 1.5 13.4 5.4 6.8 8.3 15.0 15.0 15.0 15.0 14.2 15.0 12.0 15.0 15.0 15.0 15.0 15.0 15.0 15.0 15.0 15.0 15.0 15.0 15.0 15.0 15.0 15.0 15.0 15.0
15.0 15.0 15.0 13.7 15.0 14.0 15.0 15.0 10.0 4.4 1.9 7.6 1.1 15.0 15.0 10.5 9.2 12.9 15.0 15.0 13.2 14.0 15.0 15.0 15.0 15.0 15.0 15.0 15.0 15.0 15.0 15.0 15.0 15.0 15.0 15.0 15.0 15.0 15.0 15.0 15.0 15.0 15.0
15.0 15.0 15.0 15.0 13.9 11.0 7.0 12.6 11.2 11.1 2.8 6.5 15.0 15.0 15.0 9.2 9.4 13.6 15.0 15.0 12.6 14.5 13.0 15.0 15.0 15.0 12.9 15.0 15.0 15.0 15.0 15.0 15.0 15.0 15.0 15.0 15.0 15.0 15.0 15.0 15.0 15.0 15.0
15.0 14.9 0.7 0.2 0.6 0.2 0.1 0.1 0.1 0.2 6.4 4.7 15.0 15.0 15.0 14.3 3.8 14.8 14.9 15.0 12.8 2.8 2.3 15.0 15.0 14.6 15.0 15.0 15.0 15.0 15.0 15.0 15.0 15.0 15.0 15.0 15.0 15.0 15.0 15.0 15.0 15.0 15.0
0.1 0.1 0.0 0.0 0.0 0.0 0.1 0.1 0.1 0.1 0.2 0.2 6.0 15.0 2.4 10.4 0.2 1.0 10.5 15.0 15.0 15.0 15.0 13.8 15.0 15.0 15.0 15.0 15.0 15.0 15.0 15.0 15.0 15.0 15.0 15.0 15.0 15.0 15.0 15.0 15.0 15.0 15.0
0.0 0.0 0.1 0.1 0.0 0.1 0.1 0.1 0.1 0.2 0.2 0.3 0.7 4.8 1.5 0.2 5.5 6.6 9.2 6.7 2.6 8.1 15.0 15.0 15.0 15.0 15.0 15.0 15.0 15.0 15.0 15.0 15.0 15.0 15.0 15.0 15.0 15.0 15.0 15.0 15.0 12.7 13.2
0.1 0.1 0.1 0.1 0.1 0.2 0.2 0.3 12.4 1.8 1.1 2.3 14.7 13.2 5.3 0.5 5.5 6.5 4.5 15.0 15.0 15.0 15.0 15.0 15.0 15.0 15.0 15.0 15.0 15.0 15.0 15.0 15.0 15.0 15.0 15.0 15.0 15.0 15.0 10.3 1.1 1.0 6.3
1.3 6.0 11.5 15.0 15.0 15.0 15.0 15.0 15.0 15.0 11.7 11.4 9.9 9.6 9.1 7.7 7.3 15.0 15.0 15.0 14.9 15.0 15.0 15.0 15.0 15.0 15.0 15.0 15.0 15.0 14.4 15.0 15.0 15.0 15.0 15.0 15.0 15.0 15.0 15.0 11.2 0.1 0.6
15.0 15.0 15.0 15.0 15.0 15.0 15.0 15.0 15.0 15.0 15.0 15.0 15.0 15.0 15.0 15.0 14.0 14.0 15.0 2.8 8.3 6.5 15.0 15.0 15.0 15.0 15.0 15.0 15.0 15.0 13.4 15.0 15.0 15.0 15.0 15.0 15.0 15.0 15.0 14.1 0.2 0.1 0.2
15.0 15.0 15.0 15.0 15.0 15.0 15.0 15.0 15.0 15.0 15.0 15.0 15.0 14.9 10.7 0.3 0.3 0.2 0.6 4.5 15.0 15.0 15.0 15.0 15.0 15.0 15.0 15.0 15.0 15.0 15.0 15.0 15.0 15.0 15.0 15.0 15.0 15.0 15.0 15.0 15.0 15.0 0.3
15.0 15.0 15.0 15.0 15.0 15.0 15.0 15.0 15.0 15.0 15.0 15.0 15.0 1.7 0.1 0.1 0.1 0.2 13.2 15.0 15.0 15.0 15.0 15.0 15.0 15.0 15.0 15.0 15.0 15.0 15.0 15.0 15.0 15.0 15.0 15.0 13.1 15.0 15.0 15.0 15.0 15.0 15.0
15.0 15.0 15.0 15.0 15.0 15.0 15.0 15.0 15.0 15.0 15.0 12.7 0.1 0.1 0.1 0.1 0.1 1.6 15.0 13.4 6.1 3.4 15.0 15.0 15.0 15.0 15.0 15.0 15.0 15.0 15.0 15.0 15.0 15.0 15.0 13.6 15.0 15.0 15.0 15.0 6.3 15.0 2.8
15.0 15.0 15.0 15.0 15.0 15.0 15.0 11.9 5.5 0.1 0.1 0.1 0.1 0.1 0.1 0.1 0.1 0.2 2.4 3.3 15.0 15.0 14.5 8.4 8.9 15.0 15.0 15.0 15.0 15.0 15.0 15.0 15.0 15.0 12.5 15.0 15.0 15.0 15.0 11.8 14.7 15.0 2.3
15.0 15.0 15.0 15.0 5.7 0.6 0.2 0.1 0.1 0.2 0.3 0.4 1.6 2.4 1.3 1.8 0.7 0.2 0.2 0.5 2.6 15.0 15.0 6.7 7.4 15.0 15.0 6.5 1.1 2.4 15.0 15.0 15.0 15.0 9.7 15.0 15.0 11.6 3.0 15.0 15.0 2.9 1.8
15.0 15.0 15.0 1.9 0.3 0.1 0.1 0.2 0.1 0.1 0.1 0.1 0.1 0.1 0.1 0.2 0.1 0.1 0.1 0.7 0.4 0.2 0.1 0.1 0.1 0.1 0.1 0.1 0.2 4.5 4.9 7.0 14.9 14.9 3.7 15.0 10.7 3.1 2.1 12.6 15.0 14.8 6.6
0.6 0.3 0.4 0.2 0.2 0.3 0.3 0.3 0.3 0.2 0.1 0.1 0.1 0.1 0.1 0.1 0.1 0.2 1.4 1.0 0.2 0.2 0.1 0.1 0.1 0.2 0.5 1.3 2.1 4.0 5.5 9.9 8.4 4.5 4.1 4.1 1.9 2.7 9.1 13.2 11.9 1.9 1.3
3.2 1.0 1.0 1.0 0.9 0.8 0.9 1.2 0.6 0.2 0.1 0.3 3.6 1.6 0.1 0.2 0.3 0.7 2.3 0.6 0.4 0.3 1.1 3.7 1.4 1.1 1.4 3.4 4.0 1.9 1.1 3.7 4.2 2.4 2.4 1.0 2.0 14.9 2.2 4.7 3.7 4.0 5.7
1.9 1.6 3.0 4.8 12.9 15.0 15.0 15.0 15.0 14.7 5.2 5.1 2.6 0.4 0.7 3.4 0.5 0.3 0.2 0.3 0.8 0.9 0.7 1.2 0.9 1.5 3.9 3.6 1.3 0.6 1.4 4.1 6.4 2.6 0.8 2.1 3.1 1.9 2.2 2.7 1.8 1.1 4.1
15.0 15.0 15.0 15.0 15.0 15.0 5.2 9.3 15.0 9.8 4.7 1.5 0.3 0.4 0.9 1.0 0.4 0.5 0.6 0.8 1.2 1.7 1.1 0.7 0.9 3.1 3.2 0.9 3.3 4.0 3.2 1.8 1.6 0.6 0.7 4.1 1.9 0.8 4.0 1.3 1.3 4.1 3.1
15.0 15.0 15.0 9.1 12.8 6.6 4.5 7.0 5.6 5.4 4.9 3.7 1.6 2.3 12.1 4.3 4.1 4.0 4.0 3.2 1.7 2.4 3.0 1.2 0.8 0.6 0.6 0.6 0.9 1.0 1.5 1.9 3.5 9.5 3.3 2.1 1.3 1.4 3.6 1.7 1.6 2.6 3.0
15.0 15.0 12.9 7.5 8.3 5.8 4.9 4.5 4.1 3.5 1.7 2.2 2.6 3.3 4.1 3.5 1.9 1.6 1.4 2.7 5.8 2.9 3.4 5.2 8.2 15.0 15.0 15.0 13.0 4.4 2.0 6.4 8.6 0.4 0.3 0.5 0.6 3.4 2.3 1.0 1.6 1.2 1.8
15.0 15.0 14.4 12.9 14.7 11.4 4.1 4.1 4.4 4.9 3.4 2.2 1.6 1.9 1.2 1.1 0.9 1.1 2.5 1.7 3.0 6.8 15.0 15.0 15.0 15.0 15.0 15.0 15.0 15.0 5.2 0.8 0.3 0.2 0.4 0.5 0.7 1.4 0.9 0.8 1.1 1.0 1.1
15.0 14.2 4.9 3.5 4.1 4.0 7.4 4.5 4.0 4.0 5.3 3.1 1.8 1.1 1.0 2.9 5.0 3.2 3.4 4.9 15.0 15.0 15.0 15.0 15.0 15.0 15.0 15.0 15.0 15.0 3.1 0.8 1.0 1.1 0.7 0.5 0.9 2.9 2.9 0.7 1.0 1.0 1.7
15.0 14.2 5.9 9.3 4.2 3.7 2.8 2.8 2.3 2.3 2.0 2.2 3.8 4.2 5.1 4.1 7.0 3.6 5.8 5.8 2.1 3.3 14.8 15.0 15.0 15.0 15.0 15.0 14.9 5.4 5.9 15.0 12.8 12.8 1.3 0.6 0.7 1.5 1.4 0.9 1.4 0.6 1.2